{"data":{"norad_id":66969,"intl_designator":"2025-288L","name":"STARLINK-36149","alt_names":[],"object_type":"PAYLOAD","status":"ACTIVE","operator":null,"country":"US","launch_date":"2025-12-08","launch_site_code":"AFETR","launch_vehicle":null,"mission":null,"orbit_class":"UNKNOWN","rcs_meters":null,"size_class":null,"mass_kg":null,"dimensions":null,"purposes":["comms"],"wikipedia_slug":null,"has_3d_model":false,"image_url":null,"decayed_at":null,"tle_current":{"epoch":"2026-05-24T20:47:49.801632Z","epoch_age_seconds":86650,"freshness":"FRESH","line1":"1 66969U 25288L   26144.86654863  .00022096  00000+0  80963-3 0  9991","line2":"2 66969  43.0031 313.5997 0002207 269.3202  90.7397 15.27596765 26939","mean_motion":15.27596765,"eccentricity":0.0002207,"inclination_deg":43.0031,"raan_deg":313.5997,"arg_perigee_deg":269.3202,"mean_anomaly_deg":90.7397,"bstar":0.00080963,"rev_number":2693,"period_min":94.265714159194,"perigee_km":481.48464336533,"apogee_km":484.51314874985,"semimajor_km":6861.1358960576,"source":"CELESTRAK","updated_at":"2026-05-25T13:38:21.421659Z"}}}